Location: Broletto
(44.6000°N, 10.5833°E)
Time: 06:32:04
(UTC+00:00)

SL-8 R/B - Pass Details

Date: 18 April 2021
Orbit: 656 x 667 km, 48.4° (Epoch: 06 May)

Event Time Altitude Azimuth Distance (km) Brightness Sun altitude
Rises 19:39:31 0° 292° (WNW) 3,006 8.7 -15.8°
Reaches altitude 10° 19:41:53 10° 292° (WNW) 2,092 7.5 -16.1°
Maximum altitude 19:46:43 85° 205° (SSW) 673 3.6 -16.8°
Enters shadow 19:48:58 32° 118° (ESE) 1,137 4.3 -17.1°
